Weather History for LGIR - December, 2012

Change the Weather History Date:

Tuesday, December 11, 2012

  Actual Average Record
Temperature  
Mean Temperature 58 °F -  
Max Temperature 65 °F 62 °F 68 °F (1999)
Min Temperature 50 °F 51 °F 39 °F (2010)
Degree Days  
Heating Degree Days 8    
Growing Degree Days 8 (Base 50)    
Moisture  
Dew Point 46 °F    
Average Humidity 65    
Maximum Humidity 77    
Minimum Humidity 45    
Precipitation  
Precipitation 0.00 in 0.11 in - ()
Sea Level Pressure  
Sea Level Pressure 29.88 in    
Wind  
Wind Speed 11 mph ()    
Max Wind Speed 21 mph    
Max Gust Speed -    
Visibility 6.5 miles    
Events      
Averages and records for this station are not official NWS values.
T = Trace of Precipitation, MM = Missing Value Source: Averaged Metar Reports

Daily Weather History Graph

Daily Weather History Graph

Search for Another Location

Airport or City:

Trip Planner

Search our weather history database for the weather conditions in past years. The results will help you decide how hot, cold, wet, or windy it might be!

Date:

Astronomy

Dec. 11, 2012 Rise Set
Actual Time 7:18 AM EET 5:07 PM EET
Civil Twilight 6:49 AM EET 5:35 PM EET
Nautical Twilight 6:18 AM EET 6:07 PM EET
Astronomical Twilight 5:47 AM EET 6:38 PM EET
Moon 4:52 AM EET (12/11) 3:27 PM EET (12/11)
Length of Visible Light 10h 45m
Length of Day
9h 49m
Waning Crescent, 6% of the Moon is Illuminated
Dec 11
Waning Crescent
Dec 13
New
Dec 20
First Quarter
Dec 28
Full
Jan 5
Last Quarter

Hourly Weather History & Observations

Time (EET) Temp. Dew Point Humidity Pressure Visibility Wind Dir Wind Speed Gust Speed Precip Events Conditions
12:20 AM 51.8 °F 44.6 °F 76% 29.86 in 6.2 mi WSW 10.4 mph - N/A   Scattered Clouds
12:50 AM 53.6 °F 44.6 °F 72% 29.86 in 6.2 mi WSW 10.4 mph - N/A   Scattered Clouds
1:20 AM 53.6 °F 44.6 °F 72% 29.86 in 6.2 mi SW 9.2 mph - N/A   Scattered Clouds
1:50 AM 53.6 °F 44.6 °F 72% 29.89 in 6.2 mi SW 8.1 mph - N/A   Scattered Clouds
2:00 AM 53 °F 45 °F 65% 29.90 in 6 mi SW 8.1 mph - -   Partly Cloudy
2:20 AM 53.6 °F 44.6 °F 72% 29.89 in 6.2 mi SW 11.5 mph - N/A   Scattered Clouds
2:50 AM 53.6 °F 44.6 °F 72% 29.89 in 6.2 mi NW 10.4 mph - N/A   Scattered Clouds
3:20 AM 53.6 °F 44.6 °F 72% 29.89 in 6.2 mi SW 10.4 mph - N/A   Scattered Clouds
3:50 AM 51.8 °F 44.6 °F 76% 29.89 in 6.2 mi WSW 10.4 mph - N/A   Scattered Clouds
4:50 AM 50.0 °F 41.0 °F 71% 29.89 in 6.2 mi SW 11.5 mph - N/A   Partly Cloudy
5:50 AM 50.0 °F 42.8 °F 76% 29.89 in 6.2 mi WSW 8.1 mph - N/A   Scattered Clouds
6:20 AM 50.0 °F 42.8 °F 76% 29.92 in 6.2 mi WSW 12.7 mph - N/A   Scattered Clouds
6:50 AM 51.8 °F 44.6 °F 76% 29.92 in 6.2 mi WSW 11.5 mph - N/A   Partly Cloudy
7:20 AM 53.6 °F 41.0 °F 62% 29.92 in 6.2 mi South 9.2 mph - N/A   Partly Cloudy
7:50 AM 51.8 °F 39.2 °F 62% 29.92 in 6.2 mi SSW 11.5 mph - N/A   Partly Cloudy
8:00 AM 51 °F 39 °F 54% 29.94 in 12 mi SSW 11.5 mph - -   Scattered Clouds
8:20 AM 51.8 °F 39.2 °F 62% 29.92 in 6.2 mi SSW 11.5 mph - N/A   Partly Cloudy
8:50 AM 53.6 °F 41.0 °F 62% 29.92 in 6.2 mi SSE 13.8 mph - N/A   Partly Cloudy
9:20 AM 53.6 °F 41.0 °F 62% 29.92 in 6.2 mi SSE 13.8 mph - N/A   Partly Cloudy
9:50 AM 53.6 °F 41.0 °F 62% 29.92 in 6.2 mi South 10.4 mph - N/A   Partly Cloudy
10:20 AM 53.6 °F 41.0 °F 62% 29.92 in 6.2 mi South 10.4 mph - N/A   Partly Cloudy
10:50 AM 64.4 °F 44.6 °F 49% 29.92 in 6.2 mi South 8.1 mph - N/A   Partly Cloudy
11:20 AM 64.4 °F 44.6 °F 49% 29.92 in 6.2 mi South 8.1 mph - N/A   Partly Cloudy
11:50 AM 64.4 °F 48.2 °F 56% 29.89 in 6.2 mi SSW 12.7 mph - N/A   Partly Cloudy
12:20 PM 64.4 °F 48.2 °F 56% 29.89 in 6.2 mi South 16.1 mph - N/A   Partly Cloudy
12:50 PM 64.4 °F 46.4 °F 52% 29.89 in 6.2 mi South 20.7 mph - N/A   Scattered Clouds
1:20 PM 64.4 °F 46.4 °F 52% 29.89 in 6.2 mi South 20.7 mph - N/A   Scattered Clouds
1:50 PM 60.8 °F 48.2 °F 63% 29.86 in 6.2 mi South 17.3 mph - N/A   Mostly Cloudy
2:00 PM 62 °F 48 °F 49% 29.87 in 12 mi South 17.3 mph - -   Partly Cloudy
2:20 PM 60.8 °F 48.2 °F 63% 29.86 in 6.2 mi South 18.4 mph - N/A   Mostly Cloudy
2:50 PM 62.6 °F 48.2 °F 59% 29.86 in 6.2 mi South 18.4 mph - N/A   Mostly Cloudy
3:20 PM 62.6 °F 48.2 °F 59% 29.86 in 6.2 mi South 18.4 mph - N/A   Mostly Cloudy
3:50 PM 62.6 °F 51.8 °F 68% 29.86 in 6.2 mi South 15.0 mph - N/A   Mostly Cloudy
4:20 PM 62.6 °F 51.8 °F 68% 29.86 in 6.2 mi South 15.0 mph - N/A   Mostly Cloudy
4:50 PM 62.6 °F 51.8 °F 68% 29.86 in 6.2 mi South 16.1 mph - N/A   Mostly Cloudy
5:20 PM 62.6 °F 51.8 °F 68% 29.86 in 6.2 mi South 16.1 mph - N/A   Mostly Cloudy
5:50 PM 62.6 °F 50.0 °F 63% 29.86 in 6.2 mi South 16.1 mph - N/A   Mostly Cloudy
6:20 PM 62.6 °F 50.0 °F 63% 29.86 in 6.2 mi South 16.1 mph - N/A   Mostly Cloudy
6:50 PM 60.8 °F 50.0 °F 68% 29.86 in 6.2 mi SSW 12.7 mph - N/A   Mostly Cloudy
7:20 PM 60.8 °F 50.0 °F 68% 29.86 in 6.2 mi SSW 12.7 mph - N/A   Mostly Cloudy
7:50 PM 59.0 °F 51.8 °F 77% 29.86 in 6.2 mi South 12.7 mph - N/A   Scattered Clouds
8:00 PM 60 °F 51 °F 64% 29.86 in 9 mi South 12.7 mph - -   Partly Cloudy
8:50 PM 60.8 °F 51.8 °F 72% 29.86 in 6.2 mi SSW 13.8 mph - N/A   Scattered Clouds
9:20 PM 60.8 °F 51.8 °F 72% 29.86 in 6.2 mi SSW 13.8 mph - N/A   Scattered Clouds
9:50 PM 60.8 °F 51.8 °F 72% 29.86 in 6.2 mi WSW 16.1 mph - N/A   Scattered Clouds
10:20 PM 60.8 °F 51.8 °F 72% 29.86 in 6.2 mi WSW 16.1 mph - N/A   Scattered Clouds
10:50 PM 60.8 °F 50.0 °F 68% 29.86 in 6.2 mi SSW 16.1 mph - N/A   Scattered Clouds
11:20 PM 60.8 °F 50.0 °F 68% 29.86 in 6.2 mi SSW 17.3 mph - N/A   Scattered Clouds
11:50 PM 60.8 °F 39.2 °F 45% 29.86 in 6.2 mi SSW 18.4 mph - N/A   Scattered Clouds